BVI4RK GOBD-KATL

Flight info

Callsign BVI4RK
Flight time N/A
Altitude 34000
Route ANITI UR976 GAMBA/M084F340 UR976 ULTEM DCT 23N040W/M084F360 23N045W 24N050W DCT FIVZE L435 KOZIK/M084F380 L435 JAINS/N0479F380 Y436 PITRW DCT HOTHH JJEDI4
Aircraft B77W/H-SDE1E2E3FGHIJ2J3J4J5M1RWXY/LB1D1

Departure

Time 2026-04-24 11:53
Airport Blaise Diagne International Airport (GOBD)

Arrival

Time N/A
Airport Hartsfield Jackson Atlanta International Airport (KATL)
Time Latitude Longitude Altitude Speed Heading
2026-04-24 11:21 14.67024 -17.06859 272 ft 0 kts 89°
2026-04-24 11:47 14.67024 -17.06863 299 ft 3 kts 87°
2026-04-24 11:48 14.67016 -17.06888 299 ft 4 kts 62°
2026-04-24 11:48 14.67009 -17.06904 302 ft 4 kts 81°
2026-04-24 11:48 14.67007 -17.06926 303 ft 4 kts 83°
2026-04-24 11:48 14.67005 -17.06953 301 ft 3 kts 94°
2026-04-24 11:49 14.67005 -17.06956 301 ft 0 kts 94°
2026-04-24 11:51 14.65504 -17.07266 310 ft 0 kts 359°
2026-04-24 11:52 14.65670 -17.07268 309 ft 58 kts 359°
2026-04-24 11:52 14.66310 -17.07280 304 ft 124 kts 359°
2026-04-24 11:52 14.67361 -17.07299 339 ft 171 kts 359°
2026-04-24 11:52 14.68598 -17.07290 750 ft 183 kts
2026-04-24 11:53 14.69837 -17.07430 1347 ft 179 kts 329°
2026-04-24 11:53 14.70848 -17.08228 1796 ft 187 kts 340°
2026-04-24 11:53 14.72115 -17.08410 2042 ft 192 kts
2026-04-24 11:53 14.73508 -17.08335 2170 ft 216 kts
2026-04-24 11:54 14.75061 -17.08271 2478 ft 230 kts
2026-04-24 11:54 14.76697 -17.08192 2899 ft 241 kts
2026-04-24 11:54 14.78404 -17.08082 3327 ft 252 kts
2026-04-24 11:54 14.80178 -17.07966 3888 ft 256 kts
2026-04-24 11:55 14.81934 -17.08077 4497 ft 255 kts 339°
2026-04-24 11:55 14.83359 -17.09162 4974 ft 263 kts 307°
2026-04-24 11:55 14.84143 -17.10895 5408 ft 274 kts 283°
2026-04-24 11:55 14.84274 -17.12857 6059 ft 276 kts 262°
2026-04-24 11:56 14.83840 -17.14801 6613 ft 281 kts 256°
2026-04-24 11:56 14.83283 -17.16752 7193 ft 284 kts 253°
2026-04-24 11:56 14.82699 -17.18711 7831 ft 286 kts 253°
2026-04-24 11:56 14.82114 -17.20682 8447 ft 288 kts 252°
2026-04-24 11:57 14.81532 -17.22674 9056 ft 291 kts 252°
2026-04-24 11:57 14.80951 -17.24685 9670 ft 293 kts 252°
2026-04-24 11:57 14.80369 -17.26717 10223 ft 297 kts 251°
2026-04-24 11:57 14.79769 -17.28825 10447 ft 316 kts 252°
2026-04-24 11:58 14.79347 -17.30312 10554 ft 330 kts 252°
2026-04-24 11:58 14.78683 -17.32659 10719 ft 351 kts 252°
2026-04-24 11:58 14.77982 -17.35143 10877 ft 370 kts 252°
2026-04-24 11:58 14.77252 -17.37741 11324 ft 381 kts 252°
2026-04-24 11:59 14.76505 -17.40392 11900 ft 387 kts 252°
2026-04-24 11:59 14.75505 -17.43946 12990 ft 388 kts 253°
2026-04-24 11:59 14.75134 -17.45796 13442 ft 393 kts 262°
2026-04-24 11:59 14.75172 -17.48644 14098 ft 401 kts 276°
2026-04-24 12:00 14.75844 -17.51441 14844 ft 400 kts 290°
2026-04-24 12:00 14.76899 -17.54054 15477 ft 400 kts 291°
2026-04-24 12:00 14.77974 -17.56703 16130 ft 400 kts 289°
2026-04-24 12:00 14.78942 -17.59394 16859 ft 401 kts 289°
2026-04-24 12:01 14.79945 -17.62116 17412 ft 406 kts 291°
2026-04-24 12:01 14.81010 -17.64825 18083 ft 409 kts 291°
2026-04-24 12:01 14.82059 -17.67555 18749 ft 409 kts 290°
2026-04-24 12:01 14.83064 -17.70315 19257 ft 410 kts 291°
2026-04-24 12:02 14.84105 -17.73073 19685 ft 416 kts 291°
2026-04-24 12:02 14.85180 -17.75872 20167 ft 420 kts 291°
2026-04-24 12:02 14.86257 -17.78673 20771 ft 421 kts 291°
2026-04-24 12:02 14.87335 -17.81498 21319 ft 423 kts 291°
2026-04-24 12:03 14.88411 -17.84337 21829 ft 426 kts 291°
2026-04-24 12:03 14.89495 -17.87213 22290 ft 430 kts 291°
2026-04-24 12:03 14.90585 -17.90109 22748 ft 434 kts 291°
2026-04-24 12:03 14.91682 -17.93029 23231 ft 437 kts 291°
2026-04-24 12:04 14.92785 -17.95964 23722 ft 439 kts 292°
2026-04-24 12:04 14.93891 -17.98907 24173 ft 440 kts 292°
2026-04-24 12:04 14.94984 -18.01820 24572 ft 441 kts 292°
2026-04-24 12:04 14.96098 -18.04792 24966 ft 443 kts 291°
2026-04-24 12:05 14.97213 -18.07773 25349 ft 446 kts 291°
2026-04-24 12:05 14.98332 -18.10769 25730 ft 448 kts 291°
2026-04-24 12:05 14.99455 -18.13778 26107 ft 449 kts 291°
2026-04-24 12:05 15.00582 -18.16798 26485 ft 451 kts 291°
2026-04-24 12:06 15.01717 -18.19838 26840 ft 453 kts 291°
2026-04-24 12:06 15.02853 -18.22884 27180 ft 455 kts 291°
2026-04-24 12:06 15.03997 -18.25952 27522 ft 457 kts 291°
2026-04-24 12:06 15.05140 -18.29020 27855 ft 459 kts 291°
2026-04-24 12:07 15.06292 -18.32114 28186 ft 461 kts 291°
2026-04-24 12:07 15.07436 -18.35185 28492 ft 462 kts 291°
2026-04-24 12:07 15.08593 -18.38296 28803 ft 464 kts 291°
2026-04-24 12:07 15.09755 -18.41418 29067 ft 466 kts 291°
2026-04-24 12:08 15.10920 -18.44552 29344 ft 467 kts 291°
2026-04-24 12:08 15.12089 -18.47700 29567 ft 470 kts 291°
2026-04-24 12:08 15.13266 -18.50869 29790 ft 472 kts 291°
2026-04-24 12:08 15.14445 -18.54043 30027 ft 473 kts 291°
2026-04-24 12:09 15.15624 -18.57221 30287 ft 473 kts 291°
2026-04-24 12:09 15.16800 -18.60393 30587 ft 471 kts 291°
2026-04-24 12:09 15.17978 -18.63571 30889 ft 470 kts 291°
2026-04-24 12:09 15.19149 -18.66732 31147 ft 470 kts 291°
2026-04-24 12:10 15.20312 -18.69873 31616 ft 465 kts 291°
2026-04-24 12:10 15.21465 -18.72987 32055 ft 461 kts 291°
2026-04-24 12:10 15.22597 -18.76047 32312 ft 462 kts 291°
2026-04-24 12:11 15.24901 -18.82278 32743 ft 464 kts 291°
2026-04-24 12:11 15.26050 -18.85388 33012 ft 463 kts 291°
2026-04-24 12:11 15.27202 -18.88508 33304 ft 462 kts 291°
2026-04-24 12:11 15.28349 -18.91616 33587 ft 462 kts 291°
2026-04-24 12:12 15.29495 -18.94722 33851 ft 462 kts 291°
2026-04-24 12:12 15.31798 -19.00970 33983 ft 465 kts 291°
2026-04-24 12:13 15.34097 -19.07212 33984 ft 461 kts 291°
2026-04-24 12:13 15.36376 -19.13408 33999 ft 459 kts 290°
2026-04-24 12:14 15.38633 -19.19549 33997 ft 458 kts 290°
2026-04-24 12:14 15.40904 -19.25734 34006 ft 459 kts 290°
2026-04-24 12:15 15.43179 -19.31935 34009 ft 461 kts 290°
2026-04-24 12:15 15.45458 -19.38151 34006 ft 462 kts 290°
2026-04-24 12:16 15.47742 -19.44391 34015 ft 463 kts 290°
2026-04-24 12:16 15.50011 -19.50595 33999 ft 463 kts 290°
2026-04-24 12:17 15.52290 -19.56831 34007 ft 462 kts 290°
2026-04-24 12:17 15.54566 -19.63065 34006 ft 461 kts 290°
2026-04-24 12:18 15.56831 -19.69277 34007 ft 461 kts 290°
2026-04-24 12:18 15.59094 -19.75490 34012 ft 460 kts 290°
2026-04-24 12:19 15.61354 -19.81699 34010 ft 460 kts 290°
2026-04-24 12:19 15.63602 -19.87881 34012 ft 460 kts 290°
2026-04-24 12:20 15.65859 -19.94096 34014 ft 460 kts 290°
2026-04-24 12:20 15.68117 -20.00319 34017 ft 461 kts 290°
2026-04-24 12:21 15.70400 -20.06542 34018 ft 462 kts 290°
2026-04-24 12:21 15.72699 -20.12773 34022 ft 462 kts 290°
2026-04-24 12:22 15.74992 -20.19000 34031 ft 461 kts 290°
2026-04-24 12:22 15.77264 -20.25186 34017 ft 461 kts 290°
2026-04-24 12:23 15.79541 -20.31396 34023 ft 460 kts 290°
2026-04-24 12:23 15.81817 -20.37607 34024 ft 459 kts 290°
2026-04-24 12:24 15.84082 -20.43797 34020 ft 458 kts 290°
2026-04-24 12:24 15.86344 -20.49983 34024 ft 458 kts 290°
2026-04-24 12:25 15.88608 -20.56181 34027 ft 459 kts 290°
2026-04-24 12:25 15.90870 -20.62380 34033 ft 459 kts 290°
2026-04-24 12:26 15.93138 -20.68600 34033 ft 460 kts 290°
2026-04-24 12:26 15.95389 -20.74781 34028 ft 461 kts 290°
2026-04-24 12:27 15.97658 -20.81017 34027 ft 461 kts 290°
2026-04-24 12:27 15.99924 -20.87255 34045 ft 461 kts 290°
2026-04-24 12:28 16.02189 -20.93492 34037 ft 460 kts 290°
2026-04-24 12:28 16.04442 -20.99703 34025 ft 458 kts 290°
2026-04-24 12:29 16.06685 -21.05893 34027 ft 457 kts 290°
2026-04-24 12:29 16.08922 -21.12073 34031 ft 456 kts 290°
2026-04-24 12:30 16.11138 -21.18204 34035 ft 455 kts 290°
2026-04-24 12:30 16.13366 -21.24370 34043 ft 456 kts 290°
2026-04-24 12:31 16.15594 -21.30547 34041 ft 456 kts 290°
2026-04-24 12:31 16.17826 -21.36736 34044 ft 457 kts 290°
2026-04-24 12:32 16.20058 -21.42937 34046 ft 458 kts 290°
2026-04-24 12:32 16.22293 -21.49148 34036 ft 459 kts 290°
2026-04-24 12:33 16.24530 -21.55375 34042 ft 459 kts 290°
2026-04-24 12:33 16.26762 -21.61594 34048 ft 458 kts 290°
2026-04-24 12:34 16.28972 -21.67756 34046 ft 457 kts 290°
2026-04-24 12:34 16.31175 -21.73949 34046 ft 455 kts 290°
2026-04-24 12:35 16.33357 -21.80112 34046 ft 454 kts 290°
2026-04-24 12:35 16.35539 -21.86279 34043 ft 453 kts 290°
2026-04-24 12:36 16.37723 -21.92454 34051 ft 454 kts 290°
2026-04-24 12:36 16.39904 -21.98623 34053 ft 454 kts 290°
2026-04-24 12:37 16.42075 -22.04773 34053 ft 455 kts 290°
2026-04-24 12:37 16.44263 -22.10977 34051 ft 456 kts 290°
2026-04-24 12:38 16.46450 -22.17184 34053 ft 457 kts 290°
2026-04-24 12:38 16.48637 -22.23400 34055 ft 457 kts 290°
2026-04-24 12:39 16.52990 -22.35787 34054 ft 455 kts 290°
2026-04-24 12:40 16.55163 -22.41980 34053 ft 454 kts 290°
2026-04-24 12:40 16.57324 -22.48148 34057 ft 452 kts 290°
2026-04-24 12:41 16.59481 -22.54311 34059 ft 452 kts 290°
2026-04-24 12:41 16.61636 -22.60472 34064 ft 452 kts 290°
2026-04-24 12:42 16.63773 -22.66592 34054 ft 452 kts 290°
2026-04-24 12:42 16.65929 -22.72771 34055 ft 453 kts 290°
2026-04-24 12:43 16.68087 -22.78962 34049 ft 454 kts 290°
2026-04-24 12:43 16.70244 -22.85158 34047 ft 455 kts 290°
2026-04-24 12:44 16.72434 -22.91359 34053 ft 455 kts 293°
2026-04-24 12:44 16.75381 -22.97214 34052 ft 456 kts 301°
2026-04-24 12:45 16.79098 -23.02586 34057 ft 457 kts 306°
2026-04-24 12:45 16.82968 -23.07810 34054 ft 457 kts 306°
2026-04-24 12:46 16.86848 -23.13073 34058 ft 457 kts 306°
2026-04-24 12:46 16.90061 -23.17458 34070 ft 457 kts 306°
2026-04-24 12:47 16.94564 -23.23625 34071 ft 457 kts 306°
2026-04-24 12:47 16.97763 -23.28011 34069 ft 456 kts 306°
2026-04-24 12:48 17.01606 -23.33284 34094 ft 456 kts 306°
2026-04-24 12:48 17.05445 -23.38555 34084 ft 455 kts 306°
2026-04-24 12:49 17.09268 -23.43806 34068 ft 453 kts 306°
2026-04-24 12:49 17.13082 -23.49049 34072 ft 452 kts 306°
2026-04-24 12:50 17.16858 -23.54244 34071 ft 451 kts 306°
2026-04-24 12:50 17.20648 -23.59464 34073 ft 450 kts 306°
2026-04-24 12:51 17.24445 -23.64697 34080 ft 451 kts 306°
2026-04-24 12:51 17.28236 -23.69924 34081 ft 451 kts 306°
2026-04-24 12:52 17.32009 -23.75131 34082 ft 451 kts 306°
2026-04-24 12:52 17.35805 -23.80374 34083 ft 451 kts 306°
2026-04-24 12:53 17.39594 -23.85612 34080 ft 451 kts 306°
2026-04-24 12:53 17.43384 -23.90854 34086 ft 451 kts 306°
2026-04-24 12:54 17.47167 -23.96091 34083 ft 451 kts 306°
2026-04-24 12:54 17.50926 -24.01299 34087 ft 450 kts 306°
2026-04-24 12:55 17.54703 -24.06537 34093 ft 450 kts 306°
2026-04-24 12:55 17.58479 -24.11776 34099 ft 450 kts 305°
2026-04-24 12:56 17.62257 -24.17024 34089 ft 450 kts 305°
2026-04-24 12:56 17.66023 -24.22258 34092 ft 449 kts 305°
2026-04-24 12:57 17.69755 -24.27450 34085 ft 448 kts 305°
2026-04-24 12:57 17.73494 -24.32664 34090 ft 447 kts 305°
2026-04-24 12:58 17.77218 -24.37903 34088 ft 447 kts 305°
2026-04-24 12:58 17.80936 -24.43148 34089 ft 447 kts 305°
2026-04-24 12:59 17.84653 -24.48390 34103 ft 448 kts 304°
2026-04-24 12:59 17.88370 -24.53635 34101 ft 448 kts 304°
2026-04-24 13:00 17.92065 -24.58852 34090 ft 447 kts 304°
2026-04-24 13:00 17.95779 -24.64100 34103 ft 447 kts 304°
2026-04-24 13:01 17.99480 -24.69333 34094 ft 446 kts 304°
2026-04-24 13:01 18.03181 -24.74572 34101 ft 446 kts 304°
2026-04-24 13:02 18.06884 -24.79817 34092 ft 446 kts 304°
2026-04-24 13:02 18.10586 -24.85064 34119 ft 446 kts 304°
2026-04-24 13:03 18.14282 -24.90308 34096 ft 446 kts 304°
2026-04-24 13:03 18.17978 -24.95555 34094 ft 446 kts 304°
2026-04-24 13:04 18.21642 -25.00761 34093 ft 446 kts 304°
2026-04-24 13:04 18.25327 -25.06003 34111 ft 446 kts 304°
2026-04-24 13:05 18.29013 -25.11249 34107 ft 446 kts 304°
2026-04-24 13:05 18.32701 -25.16501 34091 ft 446 kts 304°
2026-04-24 13:06 18.36393 -25.21765 34109 ft 446 kts 304°
2026-04-24 13:06 18.40079 -25.27023 34097 ft 445 kts 304°
2026-04-24 13:07 18.43745 -25.32258 34102 ft 443 kts 304°
2026-04-24 13:07 18.47378 -25.37450 34102 ft 442 kts 304°
2026-04-24 13:08 18.51021 -25.42661 34100 ft 441 kts 304°
2026-04-24 13:08 18.54662 -25.47874 34101 ft 441 kts 304°
2026-04-24 13:09 18.60121 -25.55695 34106 ft 441 kts 304°
2026-04-24 13:09 18.63758 -25.60913 34116 ft 442 kts 304°
2026-04-24 13:10 18.67369 -25.66096 34099 ft 441 kts 304°
2026-04-24 13:10 18.70999 -25.71311 34106 ft 441 kts 304°
2026-04-24 13:11 18.74624 -25.76525 34108 ft 441 kts 304°
2026-04-24 13:11 18.78252 -25.81745 34109 ft 440 kts 304°
2026-04-24 13:12 18.81873 -25.86962 34112 ft 441 kts 304°
2026-04-24 13:12 18.85495 -25.92183 34112 ft 441 kts 304°
2026-04-24 13:13 18.89115 -25.97407 34108 ft 441 kts 304°
2026-04-24 13:13 18.92735 -26.02635 34112 ft 440 kts 304°
2026-04-24 13:14 18.96351 -26.07852 34111 ft 440 kts 304°
2026-04-24 13:14 18.99993 -26.13045 34112 ft 440 kts 304°
2026-04-24 13:15 19.03615 -26.18197 34112 ft 439 kts 304°
2026-04-24 13:15 19.07256 -26.23388 34112 ft 439 kts 304°
2026-04-24 13:16 19.10893 -26.28583 34114 ft 439 kts 304°
2026-04-24 13:16 19.14528 -26.33781 34122 ft 439 kts 304°
2026-04-24 13:17 19.18171 -26.38996 34114 ft 439 kts 304°
2026-04-24 13:17 19.21797 -26.44189 34110 ft 438 kts 304°
2026-04-24 13:18 19.25417 -26.49379 34118 ft 438 kts 304°
2026-04-24 13:18 19.29013 -26.54540 34118 ft 438 kts 304°
2026-04-24 13:19 19.32631 -26.59736 34119 ft 438 kts 304°
2026-04-24 13:19 19.36244 -26.64929 34118 ft 438 kts 304°
2026-04-24 13:20 19.39856 -26.70125 34119 ft 438 kts 304°
2026-04-24 13:20 19.43472 -26.75331 34121 ft 438 kts 304°
2026-04-24 13:21 19.47085 -26.80537 34121 ft 438 kts 304°
2026-04-24 13:21 19.50677 -26.85718 34119 ft 439 kts 304°
2026-04-24 13:22 19.54294 -26.90939 34115 ft 439 kts 304°
2026-04-24 13:22 19.57911 -26.96165 34121 ft 439 kts 304°
2026-04-24 13:23 19.61534 -27.01404 34142 ft 440 kts 304°
2026-04-24 13:23 19.65148 -27.06634 34122 ft 439 kts 304°
2026-04-24 13:24 19.68752 -27.11854 34119 ft 438 kts 304°
2026-04-24 13:24 19.72324 -27.17032 34121 ft 437 kts 304°
2026-04-24 13:25 19.75908 -27.22232 34118 ft 436 kts 304°
2026-04-24 13:25 19.79496 -27.27443 34126 ft 436 kts 304°
2026-04-24 13:26 19.83077 -27.32650 34123 ft 437 kts 304°
2026-04-24 13:26 19.86662 -27.37865 34142 ft 437 kts 304°
2026-04-24 13:27 19.90251 -27.43090 34127 ft 437 kts 304°
2026-04-24 13:27 19.93830 -27.48306 34117 ft 436 kts 304°
2026-04-24 13:28 19.97380 -27.53484 34121 ft 436 kts 304°
2026-04-24 13:28 20.00948 -27.58693 34129 ft 436 kts 304°
2026-04-24 13:29 20.04515 -27.63905 34128 ft 436 kts 304°
2026-04-24 13:29 20.08084 -27.69125 34128 ft 436 kts 304°
2026-04-24 13:30 20.11652 -27.74349 34140 ft 436 kts 303°
2026-04-24 13:30 20.15207 -27.79557 34123 ft 435 kts 303°
2026-04-24 13:31 20.18762 -27.84769 34128 ft 434 kts 303°
2026-04-24 13:31 20.22285 -27.89941 34127 ft 434 kts 303°
2026-04-24 13:32 20.25820 -27.95133 34131 ft 433 kts 303°
2026-04-24 13:32 20.29361 -28.00339 34134 ft 433 kts 303°
2026-04-24 13:33 20.32905 -28.05555 34134 ft 434 kts 303°
2026-04-24 13:33 20.36441 -28.10762 34137 ft 434 kts 303°
2026-04-24 13:34 20.39956 -28.15945 34132 ft 433 kts 303°
2026-04-24 13:34 20.43477 -28.21140 34133 ft 432 kts 303°
2026-04-24 13:35 20.46996 -28.26338 34130 ft 432 kts 303°
2026-04-24 13:35 20.49923 -28.30665 34133 ft 432 kts 303°
2026-04-24 13:36 20.53436 -28.35860 34135 ft 432 kts 303°
2026-04-24 13:36 20.56946 -28.41058 34136 ft 432 kts 303°
2026-04-24 13:37 20.60454 -28.46257 34138 ft 431 kts 303°
2026-04-24 13:37 20.63935 -28.51419 34136 ft 430 kts 303°
2026-04-24 13:38 20.67425 -28.56601 34135 ft 429 kts 303°
2026-04-24 13:38 20.70908 -28.61777 34140 ft 429 kts 303°
2026-04-24 13:39 20.74390 -28.66956 34138 ft 429 kts 303°
2026-04-24 13:39 20.77868 -28.72134 34140 ft 429 kts 303°
2026-04-24 13:40 20.81348 -28.77319 34157 ft 429 kts 302°
2026-04-24 13:40 20.84828 -28.82509 34150 ft 429 kts 302°
2026-04-24 13:41 20.88308 -28.87704 34142 ft 429 kts 302°
2026-04-24 13:41 20.91780 -28.92891 34141 ft 428 kts 302°
2026-04-24 13:42 20.95227 -28.98046 34137 ft 428 kts 302°
2026-04-24 13:42 20.98694 -29.03236 34139 ft 428 kts 302°
2026-04-24 13:43 21.02156 -29.08424 34143 ft 428 kts 302°
2026-04-24 13:43 21.05623 -29.13623 34156 ft 429 kts 302°
2026-04-24 13:44 21.09065 -29.18788 34143 ft 428 kts 302°
2026-04-24 13:44 21.12518 -29.23976 34144 ft 427 kts 302°
2026-04-24 13:45 21.15965 -29.29159 34142 ft 427 kts 302°
2026-04-24 13:45 21.19406 -29.34339 34144 ft 426 kts 302°
2026-04-24 13:46 21.22848 -29.39525 34147 ft 426 kts 302°
2026-04-24 13:46 21.26285 -29.44709 34167 ft 426 kts 302°
2026-04-24 13:47 21.29723 -29.49898 34144 ft 426 kts 302°
2026-04-24 13:47 21.33131 -29.55046 34147 ft 425 kts 302°
2026-04-24 13:48 21.36553 -29.60221 34153 ft 425 kts 302°
2026-04-24 13:48 21.39975 -29.65402 34156 ft 425 kts 302°
2026-04-24 13:49 21.43390 -29.70576 34157 ft 425 kts 302°
2026-04-24 13:49 21.46781 -29.75784 34154 ft 424 kts 298°
2026-04-24 13:50 21.49303 -29.81465 34159 ft 421 kts 290°
2026-04-24 13:50 21.51006 -29.87426 34155 ft 420 kts 281°
2026-04-24 13:51 21.52098 -29.93588 34150 ft 420 kts 281°
2026-04-24 13:51 21.53169 -29.99759 34148 ft 420 kts 281°
2026-04-24 13:52 21.54256 -30.05939 34148 ft 421 kts 281°
2026-04-24 13:52 21.55352 -30.12114 34136 ft 421 kts 281°
2026-04-24 13:53 21.56452 -30.18292 34152 ft 421 kts 281°
2026-04-24 13:53 21.57550 -30.24476 34149 ft 422 kts 281°
2026-04-24 13:54 21.58648 -30.30669 34158 ft 422 kts 281°
2026-04-24 13:54 21.59744 -30.36868 34151 ft 422 kts 281°
2026-04-24 13:55 21.60838 -30.43071 34146 ft 423 kts 281°
2026-04-24 13:55 21.61931 -30.49280 34162 ft 423 kts 281°
2026-04-24 13:56 21.63017 -30.55461 34146 ft 423 kts 281°
2026-04-24 13:56 21.64108 -30.61689 34144 ft 424 kts 281°
2026-04-24 13:57 21.65197 -30.67920 34153 ft 424 kts 281°
2026-04-24 13:57 21.66285 -30.74154 34160 ft 424 kts 281°
2026-04-24 13:58 21.67369 -30.80385 34160 ft 424 kts 281°
2026-04-24 13:58 21.68444 -30.86576 34151 ft 424 kts 281°
2026-04-24 13:59 21.69525 -30.92817 34146 ft 424 kts 281°
2026-04-24 13:59 21.70602 -30.99052 34138 ft 424 kts 281°
2026-04-24 14:00 21.71680 -31.05300 34158 ft 425 kts 281°
2026-04-24 14:00 21.72755 -31.11550 34158 ft 425 kts 281°
2026-04-24 14:01 21.73823 -31.17775 34157 ft 426 kts 281°
2026-04-24 14:01 21.74897 -31.24044 34179 ft 426 kts 281°
2026-04-24 14:02 21.75968 -31.30315 34161 ft 425 kts 281°
2026-04-24 14:02 21.77032 -31.36560 34152 ft 423 kts 281°
2026-04-24 14:03 21.78088 -31.42771 34152 ft 421 kts 281°
2026-04-24 14:03 21.79138 -31.48961 34152 ft 420 kts 281°
2026-04-24 14:04 21.80178 -31.55109 34147 ft 420 kts 281°
2026-04-24 14:04 21.81223 -31.61297 34163 ft 421 kts 281°
2026-04-24 14:05 21.82269 -31.67503 34152 ft 422 kts 281°
2026-04-24 14:05 21.83316 -31.73737 34150 ft 423 kts 280°
2026-04-24 14:06 21.84363 -31.79980 34155 ft 424 kts 280°
2026-04-24 14:06 21.85409 -31.86236 34158 ft 425 kts 280°
2026-04-24 14:07 21.86453 -31.92498 34154 ft 425 kts 280°
2026-04-24 14:07 21.87497 -31.98770 34177 ft 425 kts 280°
2026-04-24 14:08 21.88537 -32.05032 34158 ft 424 kts 280°
2026-04-24 14:08 21.89568 -32.11255 34157 ft 424 kts 280°
2026-04-24 14:09 21.90600 -32.17501 34151 ft 423 kts 280°
2026-04-24 14:09 21.91626 -32.23731 34154 ft 422 kts 280°
2026-04-24 14:10 21.92651 -32.29963 34156 ft 422 kts 280°
2026-04-24 14:10 21.93672 -32.36188 34151 ft 422 kts 280°
2026-04-24 14:11 21.94692 -32.42419 34154 ft 423 kts 280°
2026-04-24 14:12 21.96220 -32.51788 34154 ft 424 kts 280°
2026-04-24 14:12 21.97237 -32.58041 34156 ft 424 kts 280°
2026-04-24 14:13 21.98253 -32.64309 34151 ft 425 kts 280°
2026-04-24 14:13 21.99263 -32.70549 34159 ft 425 kts 280°
2026-04-24 14:14 22.00276 -32.76827 34162 ft 425 kts 280°
2026-04-24 14:14 22.01791 -32.86242 34154 ft 423 kts 280°
2026-04-24 14:15 22.02793 -32.92486 34149 ft 422 kts 279°
2026-04-24 14:15 22.03784 -32.98679 34155 ft 422 kts 279°
2026-04-24 14:16 22.04778 -33.04911 34154 ft 422 kts 279°
2026-04-24 14:17 22.06266 -33.14258 34159 ft 422 kts 279°
2026-04-24 14:17 22.07753 -33.23645 34159 ft 423 kts 279°
2026-04-24 14:18 22.08743 -33.29907 34151 ft 424 kts 279°
2026-04-24 14:18 22.09731 -33.36177 34157 ft 424 kts 279°
2026-04-24 14:19 22.10719 -33.42463 34173 ft 425 kts 279°
2026-04-24 14:19 22.11698 -33.48708 34159 ft 425 kts 279°
2026-04-24 14:20 22.12679 -33.54982 34152 ft 424 kts 279°
2026-04-24 14:20 22.13656 -33.61244 34152 ft 423 kts 279°
2026-04-24 14:21 22.14630 -33.67503 34155 ft 422 kts 279°
2026-04-24 14:21 22.15599 -33.73750 34151 ft 422 kts 279°
2026-04-24 14:22 22.16566 -33.79997 34153 ft 422 kts 279°
2026-04-24 14:23 22.18013 -33.89379 34152 ft 423 kts 279°
2026-04-24 14:23 22.18814 -33.94585 34153 ft 423 kts 279°
2026-04-24 14:24 22.19933 -34.01880 34153 ft 423 kts 279°
2026-04-24 14:24 22.20893 -34.08153 34152 ft 424 kts 279°
2026-04-24 14:25 22.21690 -34.13378 34175 ft 424 kts 279°
2026-04-24 14:25 22.22646 -34.19656 34157 ft 424 kts 279°
2026-04-24 14:26 22.23599 -34.25934 34148 ft 423 kts 279°
2026-04-24 14:26 22.24548 -34.32204 34150 ft 422 kts 279°
2026-04-24 14:27 22.25493 -34.38461 34151 ft 422 kts 279°
2026-04-24 14:27 22.26435 -34.44716 34153 ft 422 kts 279°
2026-04-24 14:28 22.27368 -34.50930 34147 ft 422 kts 279°
2026-04-24 14:28 22.28306 -34.57189 34154 ft 422 kts 279°
2026-04-24 14:29 22.29243 -34.63463 34154 ft 423 kts 279°
2026-04-24 14:29 22.30178 -34.69737 34154 ft 423 kts 279°
2026-04-24 14:30 22.31058 -34.75657 34146 ft 423 kts 279°
2026-04-24 14:30 22.31982 -34.81892 34171 ft 424 kts 278°
2026-04-24 14:31 22.32908 -34.88157 34321 ft 425 kts 278°
2026-04-24 14:31 22.33371 -34.91301 34612 ft 423 kts 278°
2026-04-24 14:31 22.33832 -34.94425 34931 ft 420 kts 278°
2026-04-24 14:31 22.34288 -34.97529 35244 ft 417 kts 278°
2026-04-24 14:32 22.34744 -35.00626 35515 ft 416 kts 278°
2026-04-24 14:32 22.35197 -35.03715 35713 ft 416 kts 278°
2026-04-24 14:32 22.35650 -35.06811 35922 ft 416 kts 278°
2026-04-24 14:32 22.36102 -35.09899 36054 ft 417 kts 278°
2026-04-24 14:33 22.36553 -35.12990 36094 ft 416 kts 278°
2026-04-24 14:33 22.37442 -35.19083 36148 ft 411 kts 278°
2026-04-24 14:34 22.38329 -35.25180 36139 ft 410 kts 278°
2026-04-24 14:34 22.39211 -35.31263 36158 ft 409 kts 278°
2026-04-24 14:35 22.40090 -35.37341 36147 ft 410 kts 278°
2026-04-24 14:35 22.40969 -35.43437 36154 ft 411 kts 278°
2026-04-24 14:36 22.41848 -35.49552 36177 ft 412 kts 278°
2026-04-24 14:36 22.42727 -35.55677 36152 ft 413 kts 278°
2026-04-24 14:37 22.43605 -35.61814 36152 ft 413 kts 278°
2026-04-24 14:37 22.44480 -35.67950 36152 ft 413 kts 278°
2026-04-24 14:38 22.45347 -35.74047 36152 ft 412 kts 278°
2026-04-24 14:38 22.46217 -35.80172 36142 ft 412 kts 278°
2026-04-24 14:39 22.47083 -35.86294 36149 ft 412 kts 278°
2026-04-24 14:39 22.47946 -35.92414 36149 ft 412 kts 278°
2026-04-24 14:40 22.48806 -35.98528 36143 ft 412 kts 278°
2026-04-24 14:40 22.49666 -36.04657 36146 ft 412 kts 278°
2026-04-24 14:41 22.50523 -36.10782 36143 ft 412 kts 278°
2026-04-24 14:41 22.51377 -36.16905 36170 ft 412 kts 277°
2026-04-24 14:42 22.52231 -36.23045 36154 ft 412 kts 277°
2026-04-24 14:42 22.53081 -36.29170 36141 ft 411 kts 277°
2026-04-24 14:43 22.53926 -36.35286 36151 ft 411 kts 277°
2026-04-24 14:43 22.54769 -36.41395 36144 ft 410 kts 277°
2026-04-24 14:44 22.55609 -36.47501 36146 ft 410 kts 277°
2026-04-24 14:44 22.56440 -36.53567 36149 ft 410 kts 277°
2026-04-24 14:45 22.57277 -36.59684 36146 ft 411 kts 277°
2026-04-24 14:45 22.58111 -36.65800 36142 ft 411 kts 277°
2026-04-24 14:46 22.58943 -36.71922 36142 ft 411 kts 277°
2026-04-24 14:46 22.59773 -36.78045 36136 ft 412 kts 277°
2026-04-24 14:47 22.60603 -36.84190 36156 ft 412 kts 277°
2026-04-24 14:47 22.61432 -36.90340 36150 ft 413 kts 277°
2026-04-24 14:48 22.62258 -36.96484 36139 ft 412 kts 277°
2026-04-24 14:48 22.63080 -37.02623 36136 ft 412 kts 277°
2026-04-24 14:49 22.63900 -37.08759 36138 ft 412 kts 277°
2026-04-24 14:49 22.64718 -37.14902 36142 ft 412 kts 277°
2026-04-24 14:50 22.65528 -37.21002 36138 ft 412 kts 277°
2026-04-24 14:50 22.66342 -37.27154 36128 ft 413 kts 277°
2026-04-24 14:51 22.67154 -37.33306 36135 ft 413 kts 277°
2026-04-24 14:51 22.67965 -37.39474 36140 ft 414 kts 277°
2026-04-24 14:52 22.68775 -37.45644 36139 ft 414 kts 277°
2026-04-24 14:52 22.69583 -37.51820 36137 ft 414 kts 277°
2026-04-24 14:53 22.70389 -37.58001 36137 ft 415 kts 277°
2026-04-24 14:53 22.71193 -37.64191 36139 ft 415 kts 277°
2026-04-24 14:54 22.71995 -37.70376 36143 ft 415 kts 277°
2026-04-24 14:54 22.72788 -37.76520 36143 ft 415 kts 277°
2026-04-24 14:55 22.73452 -37.81668 36135 ft 414 kts 277°
2026-04-24 14:55 22.74382 -37.88914 36137 ft 414 kts 277°
2026-04-24 14:56 22.75173 -37.95090 36138 ft 414 kts 277°
2026-04-24 14:56 22.75957 -38.01240 36142 ft 414 kts 276°
2026-04-24 14:57 22.76744 -38.07426 36145 ft 415 kts 276°
2026-04-24 14:57 22.77528 -38.13609 36146 ft 415 kts 276°
2026-04-24 14:58 22.78310 -38.19798 36135 ft 414 kts 276°
2026-04-24 14:58 22.79090 -38.25983 36132 ft 414 kts 276°
2026-04-24 14:59 22.79866 -38.32161 36130 ft 414 kts 276°
2026-04-24 14:59 22.80639 -38.38342 36131 ft 413 kts 276°
2026-04-24 15:00 22.81409 -38.44513 36124 ft 413 kts 276°
2026-04-24 15:00 22.82177 -38.50683 36133 ft 413 kts 276°
2026-04-24 15:01 22.82943 -38.56863 36135 ft 413 kts 276°
2026-04-24 15:01 22.83707 -38.63044 36128 ft 414 kts 276°
2026-04-24 15:02 22.84469 -38.69232 36119 ft 414 kts 276°
2026-04-24 15:02 22.85226 -38.75393 36138 ft 415 kts 276°
2026-04-24 15:03 22.85861 -38.80582 36132 ft 415 kts 276°
2026-04-24 15:03 22.86741 -38.87792 36128 ft 415 kts 276°
2026-04-24 15:04 22.87494 -38.93987 36131 ft 414 kts 276°
2026-04-24 15:04 22.88247 -39.00192 36130 ft 414 kts 276°
2026-04-24 15:05 22.88993 -39.06373 36124 ft 414 kts 276°
2026-04-24 15:05 22.89738 -39.12564 36121 ft 413 kts 276°
2026-04-24 15:06 22.90475 -39.18706 36125 ft 413 kts 276°
2026-04-24 15:06 22.91216 -39.24897 36132 ft 413 kts 276°
2026-04-24 15:07 22.91954 -39.31093 36128 ft 414 kts 276°
2026-04-24 15:07 22.92690 -39.37286 36129 ft 414 kts 276°
2026-04-24 15:08 22.93423 -39.43479 36123 ft 414 kts 276°
2026-04-24 15:08 22.94154 -39.49673 36121 ft 413 kts 276°
2026-04-24 15:09 22.94881 -39.55853 36121 ft 413 kts 276°
2026-04-24 15:09 22.95600 -39.61993 36121 ft 412 kts 276°
2026-04-24 15:10 22.96321 -39.68165 36123 ft 412 kts 276°
2026-04-24 15:10 22.97041 -39.74346 36122 ft 412 kts 276°
2026-04-24 15:11 22.97636 -39.79482 36123 ft 413 kts 275°
2026-04-24 15:11 22.98352 -39.85671 36116 ft 413 kts 275°
2026-04-24 15:12 22.99182 -39.92869 36121 ft 414 kts 275°
2026-04-24 15:12 23.00041 -40.01168 36123 ft 413 kts 271°
2026-04-24 15:13 23.00125 -40.07354 36118 ft 412 kts 270°
2026-04-24 15:13 23.00207 -40.13568 36118 ft 412 kts 270°
2026-04-24 15:14 23.00296 -40.19777 36121 ft 411 kts 270°
2026-04-24 15:14 23.00385 -40.25990 36114 ft 411 kts 270°
2026-04-24 15:15 23.00471 -40.32194 36114 ft 411 kts 270°
2026-04-24 15:15 23.00555 -40.38400 36113 ft 411 kts 270°
2026-04-24 15:16 23.00637 -40.44610 36116 ft 412 kts 270°
2026-04-24 15:16 23.00715 -40.50797 36110 ft 412 kts 270°
2026-04-24 15:17 23.00792 -40.57016 36112 ft 412 kts 270°
2026-04-24 15:17 23.00866 -40.63248 36111 ft 413 kts 270°
2026-04-24 15:18 23.00938 -40.69490 36128 ft 413 kts 270°
2026-04-24 15:18 23.01007 -40.75718 36109 ft 413 kts 270°
2026-04-24 15:19 23.01074 -40.81906 36108 ft 412 kts 270°
2026-04-24 15:19 23.01139 -40.88126 36110 ft 411 kts 270°
2026-04-24 15:20 23.01200 -40.94332 36107 ft 411 kts 270°
2026-04-24 15:20 23.01260 -41.00533 36110 ft 411 kts 270°
2026-04-24 15:21 23.01317 -41.06738 36106 ft 411 kts 270°
2026-04-24 15:21 23.01371 -41.12935 36106 ft 411 kts 270°
2026-04-24 15:22 23.01424 -41.19134 36110 ft 411 kts 270°
2026-04-24 15:23 23.01497 -41.28441 36107 ft 411 kts 270°
2026-04-24 15:23 23.01565 -41.37706 36103 ft 411 kts 270°
2026-04-24 15:25 23.01661 -41.52191 36109 ft 411 kts 270°
2026-04-24 15:26 23.01754 -41.68717 36102 ft 410 kts 270°
2026-04-24 15:27 23.01838 -41.87298 36103 ft 410 kts 270°
2026-04-24 15:29 23.01900 -42.05843 36097 ft 410 kts 269°
2026-04-24 15:31 23.01946 -42.27565 36104 ft 411 kts 269°
2026-04-24 15:33 23.01961 -42.52301 36100 ft 410 kts 269°
2026-04-24 15:34 23.01952 -42.67762 36099 ft 410 kts 269°
2026-04-24 15:35 23.01927 -42.83236 36095 ft 410 kts 269°
2026-04-24 15:36 23.01913 -42.89442 36094 ft 411 kts 269°
2026-04-24 15:36 23.01887 -42.98712 36104 ft 411 kts 269°
2026-04-24 15:37 23.01867 -43.04910 36088 ft 410 kts 269°
2026-04-24 15:37 23.01844 -43.11107 36100 ft 410 kts 269°
2026-04-24 15:38 23.01819 -43.17292 36101 ft 410 kts 269°
2026-04-24 15:38 23.01792 -43.23479 36099 ft 409 kts 269°
2026-04-24 15:39 23.01762 -43.29658 36099 ft 409 kts 269°
2026-04-24 15:39 23.01730 -43.35796 36089 ft 409 kts 269°
2026-04-24 15:40 23.01696 -43.41981 36093 ft 409 kts 269°
2026-04-24 15:40 23.01659 -43.48162 36085 ft 410 kts 269°
2026-04-24 15:41 23.01620 -43.54346 36094 ft 410 kts 269°
2026-04-24 15:41 23.01578 -43.60534 36088 ft 410 kts 269°
2026-04-24 15:42 23.01534 -43.66725 36101 ft 410 kts 269°
2026-04-24 15:42 23.01487 -43.72911 36088 ft 410 kts 269°
2026-04-24 15:43 23.01438 -43.79089 36086 ft 409 kts 269°
2026-04-24 15:43 23.01387 -43.85267 36079 ft 409 kts 269°
2026-04-24 15:44 23.01334 -43.91399 36089 ft 408 kts 269°
2026-04-24 15:44 23.01278 -43.97565 36095 ft 408 kts 269°
2026-04-24 15:45 23.01219 -44.03744 36079 ft 409 kts 269°
2026-04-24 15:45 23.01159 -44.09912 36093 ft 409 kts 269°
2026-04-24 15:46 23.01095 -44.16085 36096 ft 409 kts 269°
2026-04-24 15:46 23.01030 -44.22270 36096 ft 409 kts 269°
2026-04-24 15:47 23.00962 -44.28450 36091 ft 409 kts 269°
2026-04-24 15:47 23.00891 -44.34630 36088 ft 409 kts 269°
2026-04-24 15:48 23.00819 -44.40770 36088 ft 410 kts 269°
2026-04-24 15:48 23.00743 -44.46958 36091 ft 409 kts 269°
2026-04-24 15:49 23.00666 -44.53146 36087 ft 410 kts 269°
2026-04-24 15:49 23.00586 -44.59328 36093 ft 410 kts 269°
2026-04-24 15:50 23.00503 -44.65513 36080 ft 410 kts 269°
2026-04-24 15:50 23.00419 -44.71664 36085 ft 410 kts 269°
2026-04-24 15:51 23.00332 -44.77851 36090 ft 410 kts 269°
2026-04-24 15:51 23.00242 -44.84047 36085 ft 410 kts 268°
2026-04-24 15:52 23.00150 -44.90245 36085 ft 410 kts 268°
2026-04-24 15:52 23.00074 -44.96444 36097 ft 410 kts 270°
2026-04-24 15:53 23.00622 -45.02614 36094 ft 412 kts 277°
2026-04-24 15:53 23.01842 -45.08652 36087 ft 412 kts 280°
2026-04-24 15:54 23.03172 -45.14706 36068 ft 412 kts 280°
2026-04-24 15:54 23.04493 -45.20758 36078 ft 412 kts 280°
2026-04-24 15:55 23.05804 -45.26812 36085 ft 412 kts 280°
2026-04-24 15:55 23.07110 -45.32871 36081 ft 412 kts 280°
2026-04-24 15:56 23.08414 -45.38935 36089 ft 412 kts 280°
2026-04-24 15:56 23.09717 -45.45009 36079 ft 412 kts 280°
2026-04-24 15:57 23.11010 -45.51049 36081 ft 412 kts 280°
2026-04-24 15:57 23.12307 -45.57120 36079 ft 412 kts 280°
2026-04-24 15:58 23.13600 -45.63180 36088 ft 412 kts 279°
2026-04-24 15:58 23.14891 -45.69244 36079 ft 411 kts 279°
2026-04-24 15:59 23.15960 -45.74277 36072 ft 411 kts 279°
2026-04-24 15:59 23.17452 -45.81314 36077 ft 411 kts 279°
2026-04-24 16:00 23.18516 -45.86341 36084 ft 410 kts 279°
2026-04-24 16:00 23.19793 -45.92384 36086 ft 410 kts 279°
2026-04-24 16:01 23.21067 -45.98431 36086 ft 410 kts 279°
2026-04-24 16:01 23.22338 -46.04471 36079 ft 410 kts 279°
2026-04-24 16:02 23.23606 -46.10508 36082 ft 409 kts 279°
2026-04-24 16:02 23.24872 -46.16550 36081 ft 409 kts 279°
2026-04-24 16:03 23.26127 -46.22553 36082 ft 409 kts 279°
2026-04-24 16:03 23.27394 -46.28624 36080 ft 409 kts 279°
2026-04-24 16:04 23.28645 -46.34631 36077 ft 409 kts 279°
2026-04-24 16:04 23.29903 -46.40679 36086 ft 410 kts 279°
2026-04-24 16:05 23.31784 -46.49753 36076 ft 409 kts 279°
2026-04-24 16:06 23.33658 -46.58819 36086 ft 409 kts 278°
2026-04-24 16:07 23.35519 -46.67848 36075 ft 409 kts 278°
2026-04-24 16:07 23.37378 -46.76898 36076 ft 408 kts 278°
2026-04-24 16:08 23.39229 -46.85938 36076 ft 407 kts 278°
2026-04-24 16:09 23.41074 -46.94976 36075 ft 407 kts 278°
2026-04-24 16:09 23.42293 -47.00958 36077 ft 407 kts 278°
2026-04-24 16:11 23.45349 -47.16019 36075 ft 407 kts 278°
2026-04-24 16:11 23.46567 -47.22044 36082 ft 407 kts 278°
2026-04-24 16:12 23.48387 -47.31072 36073 ft 406 kts 278°
2026-04-24 16:13 23.50201 -47.40093 36082 ft 406 kts 278°
2026-04-24 16:14 23.52604 -47.52094 36071 ft 405 kts 278°
2026-04-24 16:14 23.54398 -47.61084 36081 ft 405 kts 278°
2026-04-24 16:15 23.56188 -47.70083 36073 ft 405 kts 278°
2026-04-24 16:16 23.57964 -47.79039 36076 ft 405 kts 278°
2026-04-24 16:17 23.60930 -47.94060 36076 ft 405 kts 278°
2026-04-24 16:18 23.63293 -48.06086 36076 ft 406 kts 278°
2026-04-24 16:19 23.65059 -48.15108 36071 ft 405 kts 278°
2026-04-24 16:20 23.66812 -48.24090 36085 ft 405 kts 278°
2026-04-24 16:20 23.68564 -48.33096 36072 ft 404 kts 278°
2026-04-24 16:21 23.70308 -48.42092 36073 ft 403 kts 278°
2026-04-24 16:22 23.71466 -48.48078 36076 ft 403 kts 278°
2026-04-24 16:22 23.73191 -48.57025 36070 ft 403 kts 278°
2026-04-24 16:23 23.74344 -48.63021 36072 ft 404 kts 277°
2026-04-24 16:24 23.76072 -48.72033 36075 ft 404 kts 277°
2026-04-24 16:24 23.77215 -48.78009 36073 ft 404 kts 277°
2026-04-24 16:25 23.78362 -48.84017 36073 ft 404 kts 277°
2026-04-24 16:25 23.79507 -48.90030 36073 ft 404 kts 277°
2026-04-24 16:26 23.81216 -48.99033 36071 ft 403 kts 277°
2026-04-24 16:27 23.82921 -49.08039 36080 ft 403 kts 277°
2026-04-24 16:27 23.84053 -49.14036 36078 ft 403 kts 277°
2026-04-24 16:28 23.85175 -49.19994 36066 ft 402 kts 277°
2026-04-24 16:28 23.86859 -49.28961 36065 ft 402 kts 277°
2026-04-24 16:29 23.87981 -49.34950 36069 ft 401 kts 277°
2026-04-24 16:30 23.90208 -49.46882 36068 ft 400 kts 277°
2026-04-24 16:30 23.91316 -49.52839 36080 ft 400 kts 277°
2026-04-24 16:31 23.92422 -49.58801 36071 ft 400 kts 277°
2026-04-24 16:31 23.93525 -49.64756 36067 ft 400 kts 277°
2026-04-24 16:32 23.94625 -49.70709 36068 ft 399 kts 277°
2026-04-24 16:32 23.95722 -49.76664 36078 ft 400 kts 277°
2026-04-24 16:33 23.96812 -49.82587 36065 ft 399 kts 277°
2026-04-24 16:33 23.97906 -49.88548 36066 ft 399 kts 277°
2026-04-24 16:34 23.98996 -49.94501 36066 ft 399 kts 277°
2026-04-24 16:34 24.00081 -50.00446 36073 ft 399 kts 277°
2026-04-24 16:35 24.00953 -50.06434 36065 ft 397 kts 275°
2026-04-24 16:35 24.01704 -50.12410 36064 ft 397 kts 274°
2026-04-24 16:36 24.02467 -50.18404 36067 ft 397 kts 275°
2026-04-24 16:36 24.03245 -50.24382 36063 ft 397 kts 275°
2026-04-24 16:37 24.04031 -50.30360 36060 ft 397 kts 275°
2026-04-24 16:37 24.04814 -50.36313 36062 ft 398 kts 275°
2026-04-24 16:38 24.05602 -50.42320 36067 ft 399 kts 275°
2026-04-24 16:38 24.06388 -50.48330 36061 ft 399 kts 275°
2026-04-24 16:39 24.07173 -50.54351 36063 ft 399 kts 275°
2026-04-24 16:39 24.07954 -50.60357 36062 ft 399 kts 275°
2026-04-24 16:40 24.08728 -50.66334 36069 ft 399 kts 275°
2026-04-24 16:40 24.09503 -50.72340 36050 ft 398 kts 275°
2026-04-24 16:41 24.10276 -50.78336 36062 ft 398 kts 275°
2026-04-24 16:41 24.11044 -50.84324 36059 ft 397 kts 275°
2026-04-24 16:42 24.11809 -50.90306 36069 ft 397 kts 275°
2026-04-24 16:42 24.12572 -50.96288 36056 ft 396 kts 275°
2026-04-24 16:43 24.13330 -51.02254 36052 ft 395 kts 275°
2026-04-24 16:43 24.14086 -51.08221 36063 ft 395 kts 274°
2026-04-24 16:44 24.14838 -51.14180 36054 ft 395 kts 274°
2026-04-24 16:44 24.15589 -51.20147 36051 ft 395 kts 274°
2026-04-24 16:45 24.16337 -51.26104 36062 ft 395 kts 274°
2026-04-24 16:45 24.17078 -51.32032 36055 ft 396 kts 274°
2026-04-24 16:46 24.17823 -51.38005 36055 ft 396 kts 274°
2026-04-24 16:46 24.18567 -51.43989 36060 ft 396 kts 274°
2026-04-24 16:47 24.19188 -51.48999 36053 ft 396 kts 274°
2026-04-24 16:47 24.19921 -51.54935 36049 ft 396 kts 274°
2026-04-24 16:48 24.20657 -51.60912 36058 ft 396 kts 274°
2026-04-24 16:48 24.21391 -51.66895 36014 ft 396 kts 274°
2026-04-24 16:49 24.22122 -51.72867 36047 ft 396 kts 274°
2026-04-24 16:49 24.22852 -51.78861 36050 ft 396 kts 274°
2026-04-24 16:50 24.23580 -51.84854 36053 ft 397 kts 274°
2026-04-24 16:50 24.24304 -51.90825 36051 ft 398 kts 274°
2026-04-24 16:51 24.25030 -51.96838 36053 ft 398 kts 274°
2026-04-24 16:51 24.25753 -52.02853 36042 ft 398 kts 274°
2026-04-24 16:52 24.26473 -52.08858 36040 ft 397 kts 274°
2026-04-24 16:52 24.27191 -52.14860 36045 ft 397 kts 274°
2026-04-24 16:53 24.27905 -52.20861 36050 ft 397 kts 274°
2026-04-24 16:53 24.28617 -52.26860 36048 ft 397 kts 274°
2026-04-24 16:54 24.29326 -52.32859 36050 ft 397 kts 274°
2026-04-24 16:54 24.30033 -52.38857 36043 ft 397 kts 274°
2026-04-24 16:55 24.30733 -52.44815 36050 ft 396 kts 274°
2026-04-24 16:55 24.31435 -52.50809 36048 ft 396 kts 274°
2026-04-24 16:56 24.32134 -52.56800 36055 ft 396 kts 274°
2026-04-24 16:56 24.32829 -52.62784 36045 ft 395 kts 274°
2026-04-24 16:57 24.33522 -52.68763 36044 ft 395 kts 274°
2026-04-24 16:57 24.34208 -52.74707 36043 ft 395 kts 274°
2026-04-24 16:58 24.34896 -52.80689 36041 ft 395 kts 274°
2026-04-24 16:58 24.35581 -52.86666 36041 ft 395 kts 274°
2026-04-24 16:59 24.36263 -52.92638 36040 ft 395 kts 274°
2026-04-24 17:00 24.37284 -53.01614 36054 ft 395 kts 274°
2026-04-24 17:00 24.38296 -53.10560 36043 ft 395 kts 274°
2026-04-24 17:01 24.39305 -53.19530 36032 ft 395 kts 274°
2026-04-24 17:02 24.40311 -53.28520 36045 ft 396 kts 274°
2026-04-24 17:02 24.40980 -53.34527 36042 ft 396 kts 274°
2026-04-24 17:03 24.41975 -53.43500 36043 ft 396 kts 274°
2026-04-24 17:04 24.42638 -53.49507 36042 ft 396 kts 274°
2026-04-24 17:04 24.43627 -53.58507 36041 ft 396 kts 274°
2026-04-24 17:05 24.44284 -53.64516 36038 ft 396 kts 274°
2026-04-24 17:06 24.45263 -53.73508 36041 ft 396 kts 274°
2026-04-24 17:06 24.46238 -53.82511 36042 ft 396 kts 274°
2026-04-24 17:07 24.46884 -53.88511 36041 ft 395 kts 274°
2026-04-24 17:08 24.48163 -54.00449 36043 ft 395 kts 274°
2026-04-24 17:08 24.48800 -54.06430 36038 ft 394 kts 274°
2026-04-24 17:09 24.50067 -54.18397 36037 ft 394 kts 274°
2026-04-24 17:10 24.51325 -54.30359 36048 ft 394 kts 274°
2026-04-24 17:12 24.53807 -54.54249 36041 ft 394 kts 274°
2026-04-24 18:54 27.97389 -66.55384 38065 ft 418 kts 288°
2026-04-24 18:55 28.00992 -66.64357 38069 ft 419 kts 288°
2026-04-24 18:56 28.03398 -66.70361 38064 ft 419 kts 288°
2026-04-24 18:56 28.05808 -66.76384 38084 ft 420 kts 288°
2026-04-24 18:57 28.08216 -66.82413 38071 ft 420 kts 288°
2026-04-24 18:57 28.10624 -66.88448 38070 ft 420 kts 288°
2026-04-24 18:58 28.13030 -66.94488 38057 ft 421 kts 288°
2026-04-24 18:58 28.15421 -67.00503 38056 ft 421 kts 288°
2026-04-24 18:59 28.17828 -67.06564 38056 ft 421 kts 288°
2026-04-24 18:59 28.20233 -67.12631 38058 ft 421 kts 288°
2026-04-24 19:00 28.22634 -67.18695 38066 ft 421 kts 288°
2026-04-24 19:00 28.25032 -67.24764 38064 ft 422 kts 288°
2026-04-24 19:01 28.27429 -67.30841 38068 ft 422 kts 288°
2026-04-24 19:01 28.29813 -67.36893 38062 ft 423 kts 288°
2026-04-24 19:02 28.31806 -67.41959 38063 ft 423 kts 288°
2026-04-24 19:02 28.34605 -67.49085 38063 ft 423 kts 288°
2026-04-24 19:03 28.36997 -67.55196 38062 ft 423 kts 288°
2026-04-24 19:03 28.39364 -67.61313 38064 ft 423 kts 288°
2026-04-24 19:04 28.41710 -67.67398 38063 ft 423 kts 288°
2026-04-24 19:04 28.44072 -67.73530 38062 ft 424 kts 288°
2026-04-24 19:05 28.46433 -67.79666 38064 ft 424 kts 288°
2026-04-24 19:05 28.48792 -67.85804 38062 ft 424 kts 288°
2026-04-24 19:06 28.51148 -67.91945 38062 ft 424 kts 288°
2026-04-24 19:06 28.53503 -67.98093 38063 ft 423 kts 287°
2026-04-24 19:07 28.55853 -68.04238 38065 ft 424 kts 288°
2026-04-24 19:07 28.57806 -68.09353 38067 ft 424 kts 288°
2026-04-24 19:08 28.60532 -68.16500 38062 ft 424 kts 288°
2026-04-24 19:08 28.62878 -68.22666 38059 ft 424 kts 288°
2026-04-24 19:09 28.65220 -68.28832 38063 ft 424 kts 288°
2026-04-24 19:09 28.67559 -68.34996 38063 ft 424 kts 288°
2026-04-24 19:10 28.69895 -68.41167 38062 ft 424 kts 287°
2026-04-24 19:10 28.72217 -68.47309 38063 ft 425 kts 287°
2026-04-24 19:11 28.74551 -68.53491 38073 ft 425 kts 287°
2026-04-24 19:11 28.76883 -68.59683 38058 ft 425 kts 287°
2026-04-24 19:12 28.79218 -68.65890 38053 ft 426 kts 287°
2026-04-24 19:12 28.81550 -68.72097 38054 ft 426 kts 287°
2026-04-24 19:13 28.83113 -68.76255 38062 ft 426 kts 288°
2026-04-24 19:13 28.85845 -68.83472 38058 ft 426 kts 288°
2026-04-24 19:14 28.88195 -68.89681 38062 ft 426 kts 288°
2026-04-24 19:14 28.90544 -68.95904 38064 ft 427 kts 287°
2026-04-24 19:15 28.92888 -69.02128 38066 ft 427 kts 287°
2026-04-24 19:15 28.95227 -69.08351 38061 ft 427 kts 287°
2026-04-24 19:16 28.98739 -69.17711 38057 ft 427 kts 287°
2026-04-24 19:16 29.01075 -69.23953 38060 ft 427 kts 287°
2026-04-24 19:17 29.03411 -69.30203 38060 ft 428 kts 287°
2026-04-24 19:17 29.05744 -69.36457 38060 ft 428 kts 287°
2026-04-24 19:18 29.08062 -69.42681 38060 ft 428 kts 287°
2026-04-24 19:18 29.10393 -69.48949 38060 ft 428 kts 287°
2026-04-24 19:19 29.12721 -69.55221 38062 ft 428 kts 287°
2026-04-24 19:19 29.15048 -69.61502 38061 ft 428 kts 287°
2026-04-24 19:20 29.17372 -69.67784 38057 ft 429 kts 287°
2026-04-24 19:20 29.19695 -69.74075 38058 ft 429 kts 287°
2026-04-24 19:21 29.22017 -69.80372 38058 ft 429 kts 287°
2026-04-24 19:21 29.24336 -69.86676 38068 ft 430 kts 287°
2026-04-24 19:22 29.26642 -69.92951 38057 ft 430 kts 287°
2026-04-24 19:22 29.28962 -69.99277 38058 ft 430 kts 287°
2026-04-24 19:23 29.31280 -70.05610 38057 ft 431 kts 287°
2026-04-24 19:23 29.33594 -70.11941 38057 ft 431 kts 287°
2026-04-24 19:24 29.35909 -70.18284 38055 ft 431 kts 287°
2026-04-24 19:24 29.38206 -70.24592 38055 ft 431 kts 287°
2026-04-24 19:25 29.40518 -70.30951 38055 ft 432 kts 287°
2026-04-24 19:25 29.42828 -70.37317 38055 ft 432 kts 287°
2026-04-24 19:26 29.45134 -70.43684 38055 ft 432 kts 287°
2026-04-24 19:26 29.47439 -70.50057 38052 ft 432 kts 287°
2026-04-24 19:27 29.49744 -70.56441 38067 ft 433 kts 287°
2026-04-24 19:27 29.52031 -70.62788 38047 ft 433 kts 288°
2026-04-24 19:28 29.54333 -70.69189 38058 ft 434 kts 288°
2026-04-24 19:28 29.56635 -70.75597 38061 ft 434 kts 288°
2026-04-24 19:29 29.60083 -70.85222 38054 ft 434 kts 288°
2026-04-24 19:30 29.62379 -70.91645 38055 ft 435 kts 288°
2026-04-24 19:30 29.64518 -70.97640 38057 ft 435 kts 288°
2026-04-24 19:31 29.66812 -71.04079 38053 ft 436 kts 288°
2026-04-24 19:31 29.69106 -71.10533 38053 ft 436 kts 288°
2026-04-24 19:32 29.71401 -71.16997 38051 ft 437 kts 288°
2026-04-24 19:32 29.73682 -71.23435 38051 ft 437 kts 288°
2026-04-24 19:33 29.75973 -71.29914 38051 ft 437 kts 288°
2026-04-24 19:33 29.78261 -71.36395 38051 ft 437 kts 288°
2026-04-24 19:34 29.80547 -71.42885 38051 ft 437 kts 287°
2026-04-24 19:34 29.82827 -71.49366 38051 ft 436 kts 287°
2026-04-24 19:35 29.85104 -71.55854 38057 ft 436 kts 287°
2026-04-24 19:35 29.87377 -71.62341 38050 ft 437 kts 287°
2026-04-24 19:36 29.89649 -71.68839 38047 ft 437 kts 287°
2026-04-24 19:36 29.91905 -71.75302 38048 ft 438 kts 287°
2026-04-24 19:37 29.94178 -71.81824 38049 ft 438 kts 287°
2026-04-24 19:37 29.96449 -71.88356 38044 ft 438 kts 287°
2026-04-24 19:38 29.98722 -71.94904 38054 ft 440 kts 288°
2026-04-24 19:38 30.01001 -72.01484 38055 ft 443 kts 288°
2026-04-24 19:39 30.03289 -72.08100 38052 ft 445 kts 287°
2026-04-24 19:39 30.05583 -72.14745 38048 ft 446 kts 287°
2026-04-24 19:40 30.07882 -72.21419 38046 ft 447 kts 287°
2026-04-24 19:40 30.10162 -72.28050 38030 ft 448 kts 288°
2026-04-24 19:41 30.12459 -72.34746 38054 ft 448 kts 288°
2026-04-24 19:41 30.14759 -72.41458 38048 ft 449 kts 288°
2026-04-24 19:42 30.16920 -72.48217 38033 ft 448 kts 285°
2026-04-24 19:42 30.18840 -72.55027 38047 ft 448 kts 284°
2026-04-24 19:43 30.20749 -72.61876 38053 ft 448 kts 284°
2026-04-24 19:43 30.22672 -72.68734 38053 ft 449 kts 284°
2026-04-24 19:44 30.24602 -72.75602 38030 ft 449 kts 284°
2026-04-24 19:44 30.26535 -72.82480 38029 ft 450 kts 284°
2026-04-24 19:45 30.28467 -72.89376 38040 ft 450 kts 284°
2026-04-24 19:45 30.30387 -72.96243 38048 ft 451 kts 285°
2026-04-24 19:46 30.32321 -73.03142 38039 ft 452 kts 285°
2026-04-24 19:46 30.34248 -73.10081 38039 ft 453 kts 285°
2026-04-24 19:47 30.36173 -73.17034 38039 ft 454 kts 285°
2026-04-24 19:47 30.38103 -73.24006 38037 ft 455 kts 285°
2026-04-24 19:48 30.40032 -73.30989 38043 ft 455 kts 285°
2026-04-24 19:48 30.42932 -73.41512 38036 ft 458 kts 285°
2026-04-24 19:49 30.46798 -73.55603 38045 ft 460 kts 285°
2026-04-24 19:50 30.50665 -73.69762 38031 ft 464 kts 286°
2026-04-24 19:51 30.53583 -73.80493 38036 ft 466 kts 286°
2026-04-24 19:52 30.56508 -73.91285 38034 ft 468 kts 286°
2026-04-24 19:52 30.58459 -73.98507 38036 ft 469 kts 286°
2026-04-24 19:53 30.60406 -74.05737 38029 ft 469 kts 287°
2026-04-24 19:54 30.63308 -74.16547 38035 ft 469 kts 286°
2026-04-24 19:54 30.65248 -74.23798 38028 ft 470 kts 286°
2026-04-24 19:55 30.66544 -74.28650 38028 ft 470 kts 286°
2026-04-24 19:55 30.69115 -74.38301 38033 ft 470 kts 287°
2026-04-24 19:56 30.71054 -74.45544 38031 ft 469 kts 287°
2026-04-24 19:56 30.72964 -74.52786 38030 ft 469 kts 287°
2026-04-24 19:57 30.74866 -74.60004 38027 ft 470 kts 287°
2026-04-24 19:57 30.76780 -74.67271 38025 ft 470 kts 287°
2026-04-24 19:58 30.78696 -74.74553 38025 ft 470 kts 286°
2026-04-24 19:58 30.80606 -74.81832 38023 ft 471 kts 286°
2026-04-24 19:59 30.82191 -74.87888 38022 ft 471 kts 286°
2026-04-24 19:59 30.84091 -74.95166 38022 ft 471 kts 286°
2026-04-24 20:00 30.85989 -75.02453 38022 ft 470 kts 286°
2026-04-24 20:00 30.87891 -75.09746 38020 ft 470 kts 287°
2026-04-24 20:01 30.89791 -75.17038 38023 ft 470 kts 287°
2026-04-24 20:01 30.91662 -75.24333 38019 ft 470 kts 287°
2026-04-24 20:02 30.93538 -75.31632 38019 ft 470 kts 287°
2026-04-24 20:02 30.95415 -75.38932 38019 ft 470 kts 287°
2026-04-24 20:03 30.97286 -75.46184 38008 ft 470 kts 288°
2026-04-24 20:03 30.99199 -75.53462 38016 ft 469 kts 287°
2026-04-24 20:04 31.01022 -75.60776 38023 ft 470 kts 287°
2026-04-24 20:04 31.02861 -75.68085 38021 ft 470 kts 287°
2026-04-24 20:05 31.04718 -75.75407 38022 ft 471 kts 287°
2026-04-24 20:05 31.06578 -75.82728 38020 ft 471 kts 287°
2026-04-24 20:06 31.08428 -75.90048 38019 ft 471 kts 287°
2026-04-24 20:06 31.10271 -75.97389 38017 ft 471 kts 287°
2026-04-24 20:07 31.11802 -76.03487 38016 ft 471 kts 287°
2026-04-24 20:07 31.13940 -76.12016 38015 ft 471 kts 287°
2026-04-24 20:08 31.15775 -76.19357 38014 ft 470 kts 287°